Regional Weather Roundup
Issued by NWS

Home | Current Version | Previous Version | Graphics & Text | Print | Product List | Glossary On
Versions: 1 2 3 4 5 6 7 8 9 10 11 12 13 14 15 16 17 18 19 20 21 22 23 24 25 26 27
000
ASUS45 KBOI 111210
RWRID

IDAHO REGIONAL WEATHER ROUNDUP
NATIONAL WEATHER SERVICE BOISE ID
500 AM MST MON DEC 11 2017

NOTE: "FAIR" INDICATES FEW OR NO CLOUDS BELOW 12000 FEET
WITH NO SIGNIFICANT WEATHER AND/OR OBSTRUCTIONS TO VISIBILITY

IDZ012-014-111300-
SOUTHWEST IDAHO


CITY           SKY/WX    TMP DP  RH WIND       PRES   REMARKS
BOISE          CLOUDY    23  20  88 SE5       30.67S WCI  17
CALDWELL       CLOUDY    27  22  81 E3        30.70S
MOUNTAIN HOME  CLOUDY    22  22 100 E5        30.66S WCI  16
$$

IDZ016-017-111300-
SOUTHCENTRAL IDAHO


CITY           SKY/WX    TMP DP  RH WIND       PRES   REMARKS
BURLEY         FOG       16  14  92 MISG      30.57S VSB 1/4
JEROME         HAZE      20  14  77 CALM      30.59F VSB 1/4
TWIN FALLS     FOG       21  18  88 CALM      30.58S VSB 1/4
$$

IDZ019>023-111300-
SOUTHEAST IDAHO


CITY           SKY/WX    TMP DP  RH WIND       PRES   REMARKS
IDAHO FALLS    CLOUDY    10   9  95 CALM      30.59S
POCATELLO      CLOUDY    11   7  84 CALM      30.58F
REXBURG        CLOUDY     9   6  88 CALM      30.58S
$$

IDZ006-010-011-018-031-032-111300-
CENTRAL IDAHO MOUNTAINS


CITY           SKY/WX    TMP DP  RH WIND       PRES   REMARKS
MCCALL         CLEAR      8   4  83 CALM      30.53S
HAILEY         CLEAR     23  14  68 NW8       30.57S WCI  14
STANLEY          N/A      1  -4  79 CALM      30.62S
SALMON         CLOUDY    16  13  88 CALM      30.73F
CHALLIS        CLEAR      6   2  83 CALM      30.64S
$$

IDZ002-004-006-007-026-111300-
NORTHERN IDAHO


CITY           SKY/WX    TMP DP  RH WIND       PRES   REMARKS
LEWISTON       CLOUDY    27  25  92 E3        30.64S
LOWELL           N/A     23  21  92 CALM      30.67S
COEUR D`ALENE  CLOUDY    25  22  88 NE10      30.59S WCI  15
MULLAN PASS    CLEAR     39  32  76 S5        30.48S
$$




USA.gov is the U.S. government's official web portal to all federal, state and local government web resources and services.